NOAA 16 DEB, 41283

Orbit data source: Space-Track

NOAA 16 DEB, 41283 is space debris in LEO originally from a launch on Thu, 21 Sep 2000 UTC launched from the Air Force Western Test Range (AFWTR). Debris objects in space refer to the collection of defunct objects orbiting the Earth. Examples of debris include non-operational satellites, rocket bodies, and fragments generated from explosions, collisions, or faulty payload assembly.

Loading next visibility...
NOAA 16 DEB details
Identifier
41283, 2000-055GK
Orbit
LEO
Last TLE update1 day ago
Origin
Flag of USNOAA (US)
ManufacturerUnknown
MissionSpacecraft
Bus & MotorUnknown
MassUnknown
Launch date (UTC)
2000-09-21 (24 years ago)
Launch vehicleUnknown
Launch site
Air Force Western Test Range (AFWTR)
Object type
Payload
Rocket body
Debris
Shape & HBRUnknown
Radar Cross SectionSmall (<0.1 m²)

Expand to show TLE details & history

TLE from 1 day ago
0 NOAA 16 DEB
1 41283U 00055GK  24335.92665565  .00005534  00000-0  33719-2 0  9991
2 41283  98.7997 316.6435 0062031 142.7496 217.7999 14.05499859457398
Epoch: 2024-11-30T22:14Z
Definitive object data (Epoch: 2024-11-30T22:14:23.048Z)
Latitude
Longitude-87.22474°
Altitude913.365 km
Speed7.377 km/s
True Right ascension21h 06m 34s
True Declination0° 00' 00"
Sunlit
Object was in daylight at TLE epoch
Visualization TLE readout
Latitude11.42408°
Longitude-87.62365°
Altitude903.882 km
Speed7.387 km/s
Apparent Right ascension19h 56m 12s
Apparent Declination-13° 12' 06"
Sunlit
Object is in daylight
Visualization observer readout
Local Sidereal Time06:14:09
Azimuth312.822° NW
Elevation-55.129°
Doppler factor1
Orbital elements
Apogee altitude916.968 km
Perigee altitude827.021 km
Semi-major axis7,250.131 km
Eccentricity0.0062031
Inclination98.7997°
RAAN316.6435°
Arg. of periapsis142.7496°
True anomaly217.36689°
Mean anomaly217.7999°
Eccentric anomaly217.58313°
Mean motion3.5158 °/min
BSTAR0.0033719
Orbital period102.39 mins
Loading maneuver chart data...
Loading historical data...
Loading historical data...
Loading historical data...
Loading historical data...
Loading historical data...
Loading historical data...
Loading historical data...

NOAA 16 DEB Visibility forecast

Observer location: undefined°, undefined

Span
Click to sort rows by Start time (UTC) header in descending order
Start Az.
Max El. time (UTC)
Max El. Az.
Max El.
End time (UTC)
End Az.
7 mins2024-12-02 10:43:54.775Z50.034° ENE2024-12-02 10:46:54.775Z88.135° E20.144°2024-12-02 10:50:54.775Z140.033° SSE
8 mins2024-12-02 12:24:54.775Z355.159° N2024-12-02 12:28:54.775Z281.458° WNW35.37°2024-12-02 12:32:54.775Z221.783° SW
9 mins2024-12-02 22:12:54.775Z131.989° SE2024-12-02 22:16:54.775Z68.994° E33.64°2024-12-02 22:21:54.775Z1.472° NNE
7 mins2024-12-02 23:54:54.775Z219.817° SW2024-12-02 23:57:54.775Z260.355° W23.655°2024-12-03 00:01:54.775Z314.427° NW
|